TimeEDT,TemperatureF,Dew PointF,Humidity,Sea Level PressureIn,VisibilityMPH,Wind Direction,Wind SpeedMPH,Gust SpeedMPH,PrecipitationIn,Events,Conditions,WindDirDegrees,DateUTC
12:56 AM,79.0,71.1,77,30.03,10.0,SE,3.5,-,N/A,,Clear,130,2013-08-06 04:56:00
1:56 AM,77.0,71.1,82,30.01,10.0,SE,4.6,-,N/A,,Clear,140,2013-08-06 05:56:00
2:56 AM,75.9,71.1,85,29.99,10.0,SE,3.5,-,N/A,,Clear,140,2013-08-06 06:56:00
3:56 AM,77.0,71.1,82,29.97,10.0,ESE,5.8,-,N/A,,Clear,120,2013-08-06 07:56:00
4:56 AM,75.9,70.0,82,29.96,10.0,Calm,Calm,-,N/A,,Clear,0,2013-08-06 08:56:00
5:56 AM,77.0,71.1,82,29.97,10.0,ESE,3.5,-,N/A,,Clear,120,2013-08-06 09:56:00
6:56 AM,75.0,70.0,84,29.99,9.0,Calm,Calm,-,N/A,,Scattered Clouds,0,2013-08-06 10:56:00
7:56 AM,80.1,71.1,74,30.00,10.0,SE,3.5,-,N/A,,Scattered Clouds,140,2013-08-06 11:56:00
8:56 AM,82.9,71.1,67,30.01,10.0,SE,4.6,-,N/A,,Scattered Clouds,140,2013-08-06 12:56:00
9:56 AM,84.0,69.1,61,30.04,10.0,SSE,6.9,-,N/A,,Mostly Cloudy,160,2013-08-06 13:56:00
10:56 AM,84.9,70.0,61,30.04,10.0,SSE,6.9,-,N/A,,Partly Cloudy,150,2013-08-06 14:56:00
11:56 AM,87.1,70.0,57,30.05,10.0,SSE,8.1,-,N/A,,Mostly Cloudy,150,2013-08-06 15:56:00
12:56 PM,88.0,70.0,55,30.04,10.0,SSE,5.8,-,N/A,,Mostly Cloudy,160,2013-08-06 16:56:00
1:56 PM,87.1,70.0,57,30.03,10.0,SSE,4.6,-,N/A,,Mostly Cloudy,160,2013-08-06 17:56:00
2:56 PM,88.0,70.0,55,30.02,10.0,SSE,10.4,16.1,N/A,,Mostly Cloudy,150,2013-08-06 18:56:00
3:56 PM,86.0,69.1,57,30.01,10.0,SSE,5.8,-,N/A,,Mostly Cloudy,160,2013-08-06 19:56:00
4:56 PM,82.9,70.0,65,30.02,10.0,SE,6.9,-,N/A,,Mostly Cloudy,140,2013-08-06 20:56:00
5:56 PM,82.9,70.0,65,30.01,10.0,SSE,8.1,-,N/A,,Mostly Cloudy,150,2013-08-06 21:56:00
6:56 PM,82.9,71.1,67,30.01,10.0,Calm,Calm,-,N/A,,Mostly Cloudy,0,2013-08-06 22:56:00
7:56 PM,82.0,71.1,69,30.01,10.0,SSE,5.8,-,N/A,,Mostly Cloudy,150,2013-08-06 23:56:00
8:56 PM,81.0,71.1,72,30.03,10.0,ESE,3.5,-,N/A,,Mostly Cloudy,120,2013-08-07 00:56:00
9:56 PM,80.1,72.0,76,30.04,10.0,ESE,5.8,-,N/A,,Mostly Cloudy,120,2013-08-07 01:56:00
10:56 PM,80.1,71.1,74,30.04,10.0,SE,5.8,-,N/A,,Mostly Cloudy,140,2013-08-07 02:56:00
11:56 PM,80.1,72.0,76,30.04,10.0,SSE,3.5,-,N/A,,Clear,150,2013-08-07 03:56:00